This is the latest recevied weather packets stored in our database for station/object KO4LFZ. If no packets are shown the sender has not sent any weather packets the latest 10 day(s).
| Time | Temp. | Humidity | Pressure | Rain* | Wind** | Luminosity | Snow |
|---|---|---|---|---|---|---|---|
| 1778046610 | 10° C | 99% | 1009.1 hPa | 1.78 mm | - | 0 W/m² | - |
| 1778046308 | 10° C | 99% | 1008.8 hPa | 1.27 mm | - | 0 W/m² | - |
| 1778046003 | 10° C | 99% | 1009.1 hPa | 1.27 mm | - | 0 W/m² | - |
| 1778045702 | 10° C | 99% | 1008.7 hPa | 4.83 mm | - | 0 W/m² | - |
| 1778045400 | 10° C | 99% | 1008.6 hPa | 13.72 mm | - | 0 W/m² | - |
| 1778045098 | 10° C | 99% | 1008 hPa | 16.76 mm | - | 0 W/m² | - |
| 1778044795 | 10° C | 99% | 1008.9 hPa | 11.94 mm | - | 0 W/m² | - |
| 1778044492 | 10.56° C | 99% | 1008.6 hPa | 4.32 mm | - | 0 W/m² | - |
| 1778044189 | 10.56° C | 99% | 1008.3 hPa | 0 mm | - | 0 W/m² | - |
| 1778043887 | 10.56° C | 99% | 1008.1 hPa | 0 mm | - | 0 W/m² | - |
| 1778043584 | 10.56° C | 99% | 1008.4 hPa | 1.78 mm | - | 0 W/m² | - |
| 1778043280 | 10.56° C | 99% | 1008.6 hPa | 1.78 mm | - | 0 W/m² | - |
| 1778042977 | 10.56° C | 99% | 1008.7 hPa | 1.27 mm | - | 0 W/m² | - |
| 1778042675 | 10.56° C | 99% | 1008.1 hPa | 3.05 mm | - | 0 W/m² | - |
| 1778042371 | 11.11° C | 99% | 1008.4 hPa | 3.05 mm | - | 0 W/m² | - |
| 1778042069 | 11.11° C | 99% | 1008.2 hPa | 4.32 mm | - | 0 W/m² | - |
| 1778041767 | 11.11° C | 99% | 1008 hPa | 4.83 mm | - | 0 W/m² | - |
| 1778041466 | 11.11° C | 99% | 1007.9 hPa | 4.83 mm | - | 0 W/m² | - |
| 1778041164 | 11.11° C | 99% | 1008.3 hPa | 7.87 mm | - | 0 W/m² | - |
| 1778040861 | 11.67° C | 99% | 1008.7 hPa | 7.11 mm | - | 0 W/m² | - |
| 1778040558 | 11.67° C | 99% | 1008.7 hPa | 3.05 mm | - | 0 W/m² | - |
| 1778040256 | 11.67° C | 99% | 1008.6 hPa | 0 mm | - | 0 W/m² | - |
| 1778039951 | 11.67° C | 99% | 1008.3 hPa | 0 mm | - | 0 W/m² | - |
| 1778039649 | 11.67° C | 99% | 1008.5 hPa | 0 mm | - | 0 W/m² | - |
| 1778039346 | 11.67° C | 99% | 1008.3 hPa | 0 mm | - | 0 W/m² | - |
* Rain latest hour (hover to see other rain measurements)
** Current wind speed in m/s (hover to see current wind gust speed)